Regional Weather Roundup
Issued by NWS Kansas City/Pleasant Hill, MO

Home | Current Version | Previous Version | Graphics & Text | Print | Product List | Glossary Off
Versions: 1 2 3 4 5 6 7 8 9 10 11 12 13 14 15 16 17 18 19 20 21 22 23 24 25 26 27 28

000
ASUS43 KEAX 221010
RWREAX

WEATHER ROUNDUP FOR EASTERN KANSAS AND NORTHWEST MISSOURI
NATIONAL WEATHER SERVICE KANSAS CITY/PLEASANT HILL MO
500 AM CDT TUE MAY 22 2018

KSZ040-057-103>105-MOZ028-029-037-043-221100-
...KANSAS CITY METROPOLITAN AREA...

CITY           SKY/WX    TMP DP  RH WIND       PRES   REMARKS
K.C. INTL      CLOUDY    61  57  87 S5        30.01S
K.C. DOWNTOWN  PTCLDY    62  58  86 CALM      30.01R
LEES SUMMIT    CLOUDY    62  59  90 SE3       30.02S
OLATHE - IXD   CLOUDY    58  57  97 CALM      30.02S
OLATHE - OJC   CLOUDY    59  58  96 SE3       30.01S
LAWRENCE       CLOUDY    58  58 100 CALM      30.01R FOG

$$

MOZ001>008-011>017-020>025-030>033-038>040-044>046-053-054-221100-
...NORTHERN AND CENTRAL MISSOURI...

CITY           SKY/WX    TMP DP  RH WIND       PRES   REMARKS
ST. JOSEPH     CLOUDY    56  56 100 S3        30.00S
MOSBY          MOSUNNY   54  54 100 CALM      30.01S
WARRENSBURG    CLOUDY    57  55  94 CALM      30.02S FOG
WHITEMAN AFB   CLEAR     58  57  99 CALM      29.98S
CLINTON        CLEAR     57  57 100 CALM      30.02F
SEDALIA        CLOUDY    59  59 100 CALM      30.03S
WARSAW         NOT AVBL
CHILLICOTHE      N/A     55  54  96 CALM      30.03R
KIRKSVILLE     FOG       54  54 100 CALM      30.03R VSB 1/2

$$

MOZ041-047>049-056>058-063>065-088>090-097-221100-
...EASTERN AND SOUTHERN MISSOURI...

CITY           SKY/WX    TMP DP  RH WIND       PRES   REMARKS
ST. LOUIS INTL MOCLDY    67  64  90 W3        30.00R
SPIRIT OF STL  PTCLDY    66  64  93 CALM      30.00R
COLUMBIA       FOG       59  57  93 CALM      30.02R VSB 1/4
JEFFERSON CITY PTCLDY    59  59 100 NW3       30.01F
ROLLA          CLEAR     62  61  96 CALM      30.03S
OSAGE BEACH    PTCLDY    57  57 100 CALM      30.04R FOG
SPRINGFIELD    CLEAR     64  60  87 CALM      30.02R
BRANSON        CLEAR     64  64 100 CALM      30.03S FOG
JOPLIN         CLEAR     63  61  93 E5        30.02R
WEST PLAINS    CLEAR     66  65  96 W5        30.03S

$$

IAZ060-094-KSZ022-034>040-054-083-096-NEZ052-066-093-221100-
...KANSAS...SOUTHEAST NEBRASKA AND IOWA...

CITY           SKY/WX    TMP DP  RH WIND       PRES   REMARKS
TOPEKA         CLOUDY    61  61 100 CALM      30.00R
MANHATTAN      CLOUDY    65  61  87 CALM      29.99R
EMPORIA        CLOUDY    62  59  90 S8        30.00S
CHANUTE        CLEAR     62  61  96 SE6       30.01S
WICHITA        CLOUDY    64  62  93 S9        30.00R
OMAHA          CLOUDY    61  56  83 SE6       29.98S
LINCOLN        CLOUDY    60  56  86 S6        29.97F
FALLS CITY     CLOUDY    62  58  86 S8        29.98S
LAMONI         CLOUDY    60  56  86 SW5       30.01R
DES MOINES     CLOUDY    60  59  96 CALM      29.99S

$$





USA.gov is the U.S. government's official web portal to all federal, state and local government web resources and services.